Location: Finnegan
(51.1333°N, 112.0833°W)
Time: 08:30:28
(UTC+00:00)

N. Korean satellite - Pass Details

Date: 03 December 2021
Orbit: 446 x 491 km, 97.3° (Epoch: 18 January)

Event Time Altitude Azimuth Distance (km) Brightness Sun altitude
Rises 00:08:46 0° 181° (S) 2,538 10.6 -6.9°
Reaches altitude 10° 00:10:54 10° 188° (S) 1,655 9.8 -7.2°
Maximum altitude 00:14:19 44° 261° (W) 675 7.9 -7.7°
Drops below altitude 10° 00:17:42 10° 335° (NNW) 1,641 9.3 -8.1°
Sets 00:19:49 0° 342° (NNW) 2,514 10.1 -8.4°
